OCN515 LEPA-EDDF

Flight info

Callsign OCN515
Flight time N/A
Altitude 38000
Route MEROS DCT LAPIT DCT CHELY DCT LUMAS DCT MAXIR DCT LUSOL DCT BODRU DCT OKTET DCT IRMAR DCT KINES DCT VANAS DCT MOBLO DCT UBIMA DCT SOSAL DCT KORED DCT BERSU N871 DITON DCT LADOL T163 EMPAX EMPAX5D
Aircraft A320/M-SDE3FGHIRWY/LB1

Departure

Time 2026-05-08 07:11
Airport Palma de Mallorca Airport (LEPA)

Arrival

Time N/A
Airport Frankfurt Main Airport (EDDF)
Time Latitude Longitude Altitude Speed Heading
2026-05-08 06:36 39.55107 2.73634 30 ft 0 kts 189°
2026-05-08 07:01 39.55113 2.73636 30 ft 4 kts 188°
2026-05-08 07:01 39.55140 2.73639 30 ft 4 kts 179°
2026-05-08 07:02 39.55167 2.73636 30 ft 4 kts 169°
2026-05-08 07:02 39.55184 2.73631 30 ft 4 kts 159°
2026-05-08 07:02 39.55200 2.73622 30 ft 0 kts 148°
2026-05-08 07:06 39.55171 2.73652 30 ft 13 kts 120°
2026-05-08 07:06 39.55140 2.73771 30 ft 17 kts 150°
2026-05-08 07:06 39.55031 2.73859 30 ft 19 kts 148°
2026-05-08 07:06 39.54918 2.73949 30 ft 20 kts 149°
2026-05-08 07:07 39.54819 2.73990 30 ft 13 kts 208°
2026-05-08 07:07 39.54749 2.73956 30 ft 11 kts 164°
2026-05-08 07:07 39.54693 2.73922 30 ft 9 kts 237°
2026-05-08 07:07 39.54658 2.73848 30 ft 13 kts 238°
2026-05-08 07:08 39.54603 2.73732 30 ft 15 kts 239°
2026-05-08 07:08 39.54552 2.73622 30 ft 14 kts 238°
2026-05-08 07:08 39.54501 2.73515 30 ft 17 kts 238°
2026-05-08 07:08 39.54434 2.73375 30 ft 18 kts 238°
2026-05-08 07:09 39.54373 2.73245 30 ft 16 kts 239°
2026-05-08 07:09 39.54317 2.73127 30 ft 14 kts 239°
2026-05-08 07:09 39.54247 2.73064 30 ft 12 kts 167°
2026-05-08 07:09 39.54219 2.73155 30 ft 12 kts 94°
2026-05-08 07:10 39.54215 2.73333 30 ft 29 kts 76°
2026-05-08 07:10 39.54396 2.73739 30 ft 84 kts 58°
2026-05-08 07:10 39.54807 2.74607 30 ft 139 kts 59°
2026-05-08 07:10 39.55333 2.75751 489 ft 148 kts 60°
2026-05-08 07:11 39.55859 2.76903 1122 ft 149 kts 60°
2026-05-08 07:11 39.56406 2.78104 1617 ft 164 kts 62°
2026-05-08 07:11 39.57020 2.79455 1930 ft 185 kts 62°
2026-05-08 07:11 39.57709 2.80968 2336 ft 202 kts 62°
2026-05-08 07:12 39.58431 2.82545 2835 ft 204 kts 62°
2026-05-08 07:12 39.59159 2.84131 3288 ft 206 kts 62°
2026-05-08 07:12 39.59893 2.85737 3748 ft 209 kts 63°
2026-05-08 07:12 39.60636 2.87364 4199 ft 211 kts 62°
2026-05-08 07:13 39.61388 2.89010 4657 ft 213 kts 62°
2026-05-08 07:13 39.62153 2.90690 5056 ft 223 kts 63°
2026-05-08 07:13 39.62960 2.92529 5441 ft 247 kts 63°
2026-05-08 07:13 39.63830 2.94543 6001 ft 262 kts 62°
2026-05-08 07:14 39.64722 2.96611 6760 ft 269 kts 62°
2026-05-08 07:14 39.65646 2.98745 7546 ft 274 kts 62°
2026-05-08 07:14 39.66590 3.00923 8329 ft 280 kts 63°
2026-05-08 07:14 39.67556 3.03149 9136 ft 286 kts 63°
2026-05-08 07:15 39.68542 3.05428 9919 ft 292 kts 62°
2026-05-08 07:15 39.69558 3.07780 10404 ft 308 kts 61°
2026-05-08 07:15 39.70642 3.10296 10671 ft 332 kts 61°
2026-05-08 07:15 39.71810 3.13005 10930 ft 354 kts 61°
2026-05-08 07:16 39.73041 3.15855 11369 ft 367 kts 60°
2026-05-08 07:16 39.74308 3.18780 11959 ft 374 kts 60°
2026-05-08 07:16 39.75588 3.21741 12655 ft 378 kts 60°
2026-05-08 07:16 39.76884 3.24744 13364 ft 383 kts 59°
2026-05-08 07:17 39.78392 3.27547 13998 ft 386 kts 48°
2026-05-08 07:17 39.80159 3.30199 14565 ft 390 kts 47°
2026-05-08 07:17 39.81955 3.32885 15117 ft 396 kts 47°
2026-05-08 07:17 39.83773 3.35601 15659 ft 401 kts 47°
2026-05-08 07:18 39.85610 3.38350 16191 ft 406 kts 47°
2026-05-08 07:18 39.87475 3.41148 16720 ft 411 kts 46°
2026-05-08 07:18 39.89358 3.43979 17242 ft 416 kts 46°
2026-05-08 07:18 39.91266 3.46850 17761 ft 421 kts 46°
2026-05-08 07:19 39.93193 3.49754 18261 ft 426 kts 46°
2026-05-08 07:19 39.95137 3.52697 18707 ft 431 kts 46°
2026-05-08 07:19 39.97095 3.55667 19177 ft 434 kts 46°
2026-05-08 07:19 39.99072 3.58657 19695 ft 436 kts 46°
2026-05-08 07:20 40.01055 3.61656 20185 ft 438 kts 46°
2026-05-08 07:20 40.03054 3.64678 20648 ft 441 kts 46°
2026-05-08 07:20 40.05063 3.67717 21098 ft 444 kts 46°
2026-05-08 07:20 40.07088 3.70785 21556 ft 447 kts 46°
2026-05-08 07:21 40.09124 3.73876 21996 ft 450 kts 46°
2026-05-08 07:21 40.11144 3.76942 22424 ft 453 kts 46°
2026-05-08 07:21 40.13207 3.80076 22861 ft 456 kts 46°
2026-05-08 07:21 40.15277 3.83230 23284 ft 459 kts 46°
2026-05-08 07:22 40.17356 3.86407 23691 ft 461 kts 46°
2026-05-08 07:22 40.19454 3.89615 24044 ft 464 kts 46°
2026-05-08 07:22 40.21556 3.92830 24396 ft 466 kts 46°
2026-05-08 07:22 40.23673 3.96067 24740 ft 469 kts 46°
2026-05-08 07:23 40.25800 3.99324 25066 ft 471 kts 46°
2026-05-08 07:23 40.27939 4.02600 25388 ft 474 kts 46°
2026-05-08 07:23 40.30090 4.05898 25706 ft 477 kts 46°
2026-05-08 07:23 40.32218 4.09170 26020 ft 480 kts 46°
2026-05-08 07:24 40.34387 4.12513 26340 ft 482 kts 46°
2026-05-08 07:24 40.36568 4.15875 26653 ft 485 kts 46°
2026-05-08 07:24 40.38762 4.19254 26953 ft 487 kts 46°
2026-05-08 07:24 40.40959 4.22652 27271 ft 490 kts 45°
2026-05-08 07:25 40.43172 4.26082 27563 ft 492 kts 45°
2026-05-08 07:25 40.45412 4.29497 27842 ft 493 kts 42°
2026-05-08 07:25 40.50684 4.35011 28383 ft 485 kts 24°
2026-05-08 07:26 40.53700 4.36930 28652 ft 480 kts 15°
2026-05-08 07:26 40.56867 4.38250 28908 ft 475 kts
2026-05-08 07:26 40.60098 4.39065 29264 ft 472 kts
2026-05-08 07:26 40.63329 4.39833 29658 ft 471 kts
2026-05-08 07:27 40.66560 4.40605 30054 ft 470 kts
2026-05-08 07:27 40.69776 4.41377 30387 ft 470 kts
2026-05-08 07:27 40.72957 4.42144 30699 ft 470 kts
2026-05-08 07:27 40.76170 4.42918 31017 ft 470 kts
2026-05-08 07:28 40.79382 4.43689 31328 ft 469 kts
2026-05-08 07:28 40.82600 4.44463 31652 ft 469 kts
2026-05-08 07:28 40.85814 4.45239 31997 ft 468 kts
2026-05-08 07:28 40.89027 4.46015 32348 ft 468 kts
2026-05-08 07:29 40.92198 4.46782 32667 ft 467 kts
2026-05-08 07:29 40.95394 4.47558 32984 ft 467 kts
2026-05-08 07:29 40.98593 4.48336 33296 ft 467 kts
2026-05-08 07:29 41.01786 4.49111 33609 ft 467 kts
2026-05-08 07:30 41.04983 4.49889 33953 ft 466 kts
2026-05-08 07:30 41.08173 4.50667 34282 ft 465 kts
2026-05-08 07:30 41.11350 4.51441 34575 ft 464 kts
2026-05-08 07:30 41.14522 4.52212 34849 ft 464 kts
2026-05-08 07:31 41.17703 4.52984 35104 ft 463 kts
2026-05-08 07:31 41.20830 4.53747 35352 ft 463 kts
2026-05-08 07:31 41.23998 4.54520 35593 ft 463 kts
2026-05-08 07:31 41.27169 4.55295 35864 ft 462 kts
2026-05-08 07:32 41.30333 4.56071 36126 ft 462 kts
2026-05-08 07:32 41.33488 4.56846 36360 ft 461 kts
2026-05-08 07:32 41.36644 4.57621 36594 ft 461 kts
2026-05-08 07:32 41.39787 4.58392 36879 ft 459 kts
2026-05-08 07:33 41.42926 4.59160 37115 ft 458 kts
2026-05-08 07:33 41.46057 4.59927 37326 ft 457 kts
2026-05-08 07:33 41.49189 4.60698 37564 ft 457 kts
2026-05-08 07:33 41.52316 4.61470 37786 ft 456 kts
2026-05-08 07:34 41.55435 4.62242 37985 ft 456 kts
2026-05-08 07:34 41.61702 4.63788 38034 ft 459 kts
2026-05-08 07:35 41.67978 4.65338 38037 ft 459 kts
2026-05-08 07:35 41.74157 4.67592 38035 ft 474 kts 15°
2026-05-08 07:36 41.79999 4.71998 38041 ft 484 kts 23°
2026-05-08 07:36 41.85776 4.76666 38042 ft 484 kts 23°
2026-05-08 07:37 41.91567 4.81333 38065 ft 484 kts 23°
2026-05-08 07:37 41.97315 4.85974 38063 ft 484 kts 23°
2026-05-08 07:38 42.03089 4.90636 38062 ft 484 kts 23°
2026-05-08 07:38 42.08839 4.95289 38060 ft 484 kts 23°
2026-05-08 07:39 42.14614 4.99983 38078 ft 482 kts 24°
2026-05-08 07:39 42.20346 5.04659 38071 ft 481 kts 24°
2026-05-08 07:40 42.26068 5.09334 38053 ft 480 kts 24°
2026-05-08 07:40 42.31751 5.13974 38079 ft 479 kts 24°
2026-05-08 07:41 42.37468 5.18649 38072 ft 478 kts 24°
2026-05-08 07:41 42.43142 5.23309 38068 ft 477 kts 24°
2026-05-08 07:42 42.48823 5.27983 38068 ft 477 kts 24°
2026-05-08 07:42 42.54467 5.32649 38048 ft 473 kts 25°
2026-05-08 07:43 42.60053 5.37275 38042 ft 473 kts 25°
2026-05-08 07:43 42.65688 5.41932 38048 ft 473 kts 25°
2026-05-08 07:44 42.71308 5.46585 38038 ft 473 kts 25°
2026-05-08 07:44 42.76905 5.51249 38040 ft 473 kts 25°
2026-05-08 07:45 42.82511 5.55924 38041 ft 473 kts 25°
2026-05-08 07:45 42.88124 5.60607 38044 ft 473 kts 25°
2026-05-08 07:46 42.93725 5.65296 38036 ft 472 kts 26°
2026-05-08 07:46 42.99322 5.70004 38043 ft 472 kts 26°
2026-05-08 07:47 43.04906 5.74701 38044 ft 473 kts 27°
2026-05-08 07:47 43.10532 5.79435 38061 ft 473 kts 27°
2026-05-08 07:48 43.16128 5.84162 38055 ft 473 kts 27°
2026-05-08 07:48 43.21727 5.88903 38052 ft 473 kts 27°
2026-05-08 07:49 43.27313 5.93637 38049 ft 473 kts 27°
2026-05-08 07:49 43.32886 5.98380 38063 ft 473 kts 27°
2026-05-08 07:50 43.38647 6.02699 38053 ft 466 kts 15°
2026-05-08 07:50 43.44869 6.04605 38048 ft 453 kts 359°
2026-05-08 07:51 43.51144 6.05209 38048 ft 454 kts 359°
2026-05-08 07:51 43.57435 6.05845 38038 ft 455 kts 359°
2026-05-08 07:52 43.63744 6.06493 38045 ft 456 kts 359°
2026-05-08 07:52 43.70076 6.07137 38054 ft 456 kts 359°
2026-05-08 07:53 43.75372 6.07833 38029 ft 461 kts
2026-05-08 07:53 43.81475 6.10782 38029 ft 470 kts 22°
2026-05-08 07:54 43.87339 6.14788 38041 ft 472 kts 23°
2026-05-08 07:54 43.93234 6.18808 38033 ft 473 kts 23°
2026-05-08 07:55 43.99140 6.22853 38035 ft 474 kts 23°
2026-05-08 07:55 44.05091 6.26927 38042 ft 475 kts 23°
2026-05-08 07:56 44.10999 6.30974 38057 ft 475 kts 23°
2026-05-08 07:56 44.16914 6.35045 38048 ft 475 kts 23°
2026-05-08 07:57 44.22852 6.39138 38053 ft 475 kts 23°
2026-05-08 07:57 44.28778 6.43225 38057 ft 476 kts 24°
2026-05-08 07:58 44.34710 6.47341 38044 ft 476 kts 24°
2026-05-08 07:58 44.40656 6.51485 38046 ft 477 kts 24°
2026-05-08 07:59 44.46587 6.55619 38063 ft 477 kts 24°
2026-05-08 07:59 44.52521 6.59758 38060 ft 477 kts 24°
2026-05-08 08:00 44.58449 6.63897 38062 ft 477 kts 24°
2026-05-08 08:00 44.64387 6.68055 38061 ft 477 kts 24°
2026-05-08 08:01 44.70334 6.72236 38076 ft 478 kts 24°
2026-05-08 08:01 44.76284 6.76345 38072 ft 476 kts 19°
2026-05-08 08:02 44.82640 6.78564 38089 ft 468 kts
2026-05-08 08:02 44.89093 6.78441 38080 ft 464 kts 353°
2026-05-08 08:03 44.95524 6.78025 38080 ft 464 kts 353°
2026-05-08 08:03 45.01968 6.77602 38089 ft 465 kts 353°
2026-05-08 08:04 45.08441 6.77172 38089 ft 465 kts 353°
2026-05-08 08:04 45.14929 6.76740 38092 ft 466 kts 353°
2026-05-08 08:05 45.21372 6.76315 38095 ft 465 kts 353°
2026-05-08 08:05 45.27822 6.75885 38102 ft 465 kts 354°
2026-05-08 08:06 45.34326 6.75453 38099 ft 465 kts 354°
2026-05-08 08:06 45.40772 6.75025 38110 ft 466 kts 354°
2026-05-08 08:07 45.47221 6.74595 38103 ft 465 kts 353°
2026-05-08 08:07 45.53716 6.74146 38091 ft 465 kts 353°
2026-05-08 08:08 45.60167 6.73697 38100 ft 465 kts 353°
2026-05-08 08:08 45.66632 6.73251 38079 ft 466 kts 353°
2026-05-08 08:09 45.73118 6.72812 38071 ft 466 kts 353°
2026-05-08 08:09 45.79577 6.72373 38087 ft 466 kts 353°
2026-05-08 08:10 45.86053 6.71918 38089 ft 466 kts 353°
2026-05-08 08:10 45.92513 6.71483 38079 ft 465 kts 353°
2026-05-08 08:11 45.98976 6.71051 38090 ft 465 kts 353°
2026-05-08 08:11 46.05430 6.70607 38074 ft 465 kts 353°
2026-05-08 08:12 46.11889 6.70424 38072 ft 468 kts
2026-05-08 08:12 46.18254 6.72478 38077 ft 473 kts 13°
2026-05-08 08:13 46.24588 6.75164 38074 ft 473 kts 13°
2026-05-08 08:13 46.30903 6.77822 38073 ft 473 kts 13°
2026-05-08 08:14 46.37193 6.80495 38080 ft 473 kts 13°
2026-05-08 08:14 46.43491 6.83181 38076 ft 473 kts 13°
2026-05-08 08:15 46.49821 6.85888 38076 ft 473 kts 14°
2026-05-08 08:15 46.55758 6.90098 38080 ft 478 kts 34°
2026-05-08 08:16 46.60474 6.96821 38076 ft 481 kts 50°
2026-05-08 08:16 46.64695 7.04450 38072 ft 482 kts 50°
2026-05-08 08:17 46.68884 7.12006 38082 ft 482 kts 50°
2026-05-08 08:17 46.73105 7.19650 38083 ft 483 kts 50°
2026-05-08 08:18 46.77299 7.27280 38077 ft 483 kts 50°
2026-05-08 08:18 46.81478 7.34892 38065 ft 483 kts 50°
2026-05-08 08:19 46.85684 7.42567 38060 ft 483 kts 50°
2026-05-08 08:19 46.89887 7.50256 38077 ft 483 kts 50°
2026-05-08 08:20 46.94050 7.57906 38097 ft 483 kts 51°
2026-05-08 08:20 46.98227 7.65625 38091 ft 483 kts 51°
2026-05-08 08:21 47.02377 7.73327 38085 ft 483 kts 51°
2026-05-08 08:21 47.06525 7.81030 38083 ft 483 kts 51°
2026-05-08 08:22 47.10694 7.88788 38085 ft 482 kts 51°
2026-05-08 08:22 47.14665 7.96705 38089 ft 483 kts 57°
2026-05-08 08:23 47.18227 8.05081 38086 ft 482 kts 57°
2026-05-08 08:23 47.21772 8.13406 38089 ft 482 kts 57°
2026-05-08 08:24 47.25323 8.21760 38091 ft 482 kts 57°
2026-05-08 08:24 47.29141 8.29856 38088 ft 481 kts 46°
2026-05-08 08:25 47.34289 8.36072 38083 ft 476 kts 28°
2026-05-08 08:25 47.40225 8.40395 38078 ft 475 kts 23°
2026-05-08 08:26 47.46157 8.44583 38087 ft 475 kts 23°
2026-05-08 08:26 47.52115 8.48804 38101 ft 475 kts 23°